Total_Precipitation_Accumulation
1.52 1.57 1.58 1.62 1.53 1.64 1.85 2.03 1.98 2.05 2.11 1.92 1.64 1.50 1.52 1.50 1.55 1.55 1.54 1.77 1.68 1.65 2.05 2.18 2.00 1.80 1.66 1.39 1.15 0.96 0.86 0.81 0.72 0.54 0.46 0.50 0.58 0.66 0.61 0.51 0.48 0.45 0.36
1.88 1.81 1.65 1.67 1.61 1.66 1.78 1.97 2.05 2.32 2.27 2.18 1.74 1.56 1.58 1.67 1.69 1.73 1.74 2.00 1.88 1.65 1.83 2.03 2.14 2.07 1.91 1.72 1.46 1.24 1.07 0.96 0.83 0.59 0.49 0.47 0.53 0.63 0.63 0.62 0.56 0.52 0.42
2.07 1.99 1.81 1.67 1.72 1.77 1.86 1.90 2.02 2.29 2.23 2.10 1.82 1.70 1.61 1.53 1.44 1.49 1.58 1.74 1.69 1.60 1.67 1.80 2.01 2.07 2.03 1.99 1.87 1.71 1.42 1.19 1.01 0.78 0.60 0.48 0.42 0.48 0.50 0.54 0.55 0.53 0.45
2.06 2.02 1.81 1.63 1.81 1.81 1.86 1.99 2.07 2.20 2.28 2.31 2.03 1.77 1.64 1.54 1.38 1.39 1.35 1.39 1.49 1.26 1.46 1.67 1.82 1.90 2.15 2.29 2.35 2.36 1.99 1.53 1.18 0.98 0.78 0.59 0.47 0.43 0.39 0.39 0.44 0.42 0.34
1.92 1.99 1.75 1.64 1.83 1.97 1.94 1.79 2.08 2.30 2.28 2.30 1.98 1.74 1.51 1.35 1.22 1.18 1.21 1.15 1.19 1.16 1.23 1.32 1.44 1.55 1.99 2.48 2.77 2.83 2.64 2.10 1.55 1.25 1.08 0.92 0.73 0.59 0.43 0.35 0.36 0.32 0.27
1.72 1.94 1.67 1.66 1.89 1.96 1.91 1.98 2.16 2.30 2.18 2.22 1.97 1.56 1.30 1.03 0.98 0.92 0.86 0.89 0.84 0.77 0.88 1.11 1.40 1.31 1.66 2.07 2.34 2.58 2.79 2.63 2.08 1.58 1.38 1.26 1.11 0.89 0.64 0.48 0.41 0.38 0.31
1.79 2.06 1.82 1.85 1.87 1.80 1.79 1.97 2.10 2.02 1.88 2.28 2.23 1.54 1.03 0.79 0.70 0.56 0.59 0.61 0.55 0.58 0.79 1.08 1.28 1.36 1.29 1.36 1.53 1.79 2.27 2.57 2.43 1.99 1.72 1.55 1.44 1.14 0.85 0.69 0.54 0.44 0.36
1.77 1.84 1.90 1.81 1.80 1.78 1.62 1.71 1.93 1.82 1.52 1.93 2.10 1.93 1.31 0.87 0.63 0.43 0.45 0.46 0.50 0.63 0.71 0.78 1.03 1.26 1.24 1.39 1.26 1.19 1.62 2.12 2.44 2.41 2.12 1.79 1.50 1.20 0.99 0.87 0.69 0.55 0.45
1.79 1.87 1.77 1.61 1.57 1.54 1.45 1.45 1.62 1.70 1.50 1.52 1.85 2.12 1.66 1.09 0.83 0.56 0.54 0.56 0.68 0.81 0.80 0.84 0.93 1.06 1.15 1.37 1.49 1.44 1.28 1.45 2.00 2.61 2.60 2.12 1.57 1.20 1.03 1.00 0.97 0.78 0.62
1.97 1.85 1.65 1.47 1.30 1.25 1.24 1.17 1.34 1.45 1.48 1.26 1.38 1.50 1.46 1.38 1.26 0.88 0.65 0.66 0.81 0.87 0.91 0.94 0.96 1.03 1.14 1.35 1.50 1.49 1.20 1.09 1.34 2.09 2.52 2.42 1.94 1.42 1.16 1.21 1.48 1.39 1.00
1.96 1.74 1.58 1.44 1.31 1.20 1.14 1.11 1.17 1.18 1.20 1.11 1.15 1.21 1.27 1.28 1.22 1.14 0.88 0.84 0.83 0.69 0.71 0.77 0.91 1.18 1.28 1.37 1.57 1.50 1.38 1.33 1.29 1.43 1.69 1.91 1.96 1.72 1.49 1.51 1.94 2.17 1.89
1.52 1.43 1.32 1.21 1.14 1.13 1.14 1.10 1.06 1.06 1.07 1.08 1.08 1.08 1.18 1.26 1.31 1.32 1.15 1.02 0.92 0.77 0.73 0.74 0.82 1.01 1.12 1.20 1.25 1.34 1.33 1.28 1.17 1.14 1.18 1.28 1.43 1.60 1.73 1.93 2.32 2.68 2.80
0.90 0.86 0.88 0.91 0.89 0.88 0.88 0.90 0.87 0.88 0.95 1.02 1.03 1.07 1.15 1.23 1.32 1.35 1.27 1.07 0.98 0.88 0.92 0.87 0.80 0.91 0.94 1.11 1.20 1.09 0.96 0.95 0.83 0.81 0.86 0.93 1.08 1.26 1.38 1.55 1.93 2.36 2.70
0.66 0.66 0.69 0.71 0.69 0.70 0.72 0.78 0.74 0.73 0.75 0.80 0.82 1.00 1.10 1.09 1.19 1.29 1.30 1.26 1.17 1.11 1.17 1.10 0.95 0.91 0.95 1.04 1.04 0.94 0.87 0.75 0.61 0.54 0.54 0.58 0.66 0.83 1.01 1.18 1.37 1.59 1.83
0.63 0.65 0.67 0.69 0.70 0.72 0.74 0.73 0.70 0.71 0.79 0.81 0.83 0.94 1.03 1.05 1.10 1.19 1.28 1.34 1.39 1.35 1.33 1.26 1.05 0.98 0.95 0.93 0.97 0.91 0.95 0.76 0.51 0.42 0.41 0.43 0.44 0.48 0.60 0.78 0.95 1.11 1.33
0.66 0.66 0.65 0.69 0.71 0.70 0.68 0.67 0.65 0.68 0.77 0.85 0.93 1.05 1.08 1.06 1.07 1.15 1.29 1.45 1.55 1.54 1.39 1.16 1.04 1.07 1.10 0.99 0.94 0.80 0.76 0.73 0.55 0.43 0.39 0.39 0.39 0.41 0.46 0.60 0.75 0.88 1.04
0.67 0.67 0.66 0.66 0.66 0.66 0.67 0.69 0.68 0.74 0.78 0.81 0.85 0.96 1.04 1.06 1.10 1.13 1.23 1.31 1.46 1.59 1.46 1.24 1.19 1.24 1.29 1.25 1.09 0.91 0.76 0.70 0.59 0.47 0.38 0.37 0.37 0.42 0.48 0.55 0.66 0.77 0.85
0.72 0.73 0.72 0.70 0.66 0.69 0.79 0.83 0.81 0.85 0.88 0.88 0.89 0.90 0.88 0.93 1.04 1.05 1.12 1.15 1.26 1.46 1.42 1.32 1.35 1.38 1.41 1.35 1.26 1.08 0.89 0.78 0.72 0.56 0.42 0.37 0.36 0.38 0.42 0.42 0.50 0.65 0.77
0.77 0.78 0.81 0.87 0.89 0.89 0.88 0.90 0.95 0.96 0.87 0.81 0.81 0.81 0.77 0.80 0.85 0.93 1.03 1.01 1.03 1.15 1.29 1.35 1.44 1.52 1.59 1.48 1.31 1.17 1.04 0.95 0.75 0.64 0.53 0.43 0.40 0.38 0.39 0.39 0.43 0.51 0.64
0.72 0.76 0.84 0.96 1.04 1.08 1.09 1.00 0.93 0.91 0.84 0.77 0.71 0.68 0.69 0.72 0.75 0.82 0.91 0.95 0.97 1.06 1.19 1.27 1.42 1.62 1.64 1.68 1.56 1.34 1.24 1.17 0.92 0.67 0.62 0.55 0.49 0.44 0.40 0.36 0.37 0.44 0.54
0.68 0.81 0.93 1.03 1.17 1.23 1.15 1.08 0.98 0.93 0.89 0.79 0.70 0.64 0.60 0.58 0.61 0.68 0.69 0.76 0.86 0.95 0.98 1.07 1.21 1.44 1.57 1.69 1.65 1.45 1.30 1.31 1.17 0.87 0.73 0.67 0.64 0.57 0.51 0.45 0.37 0.36 0.44
0.67 0.74 0.80 0.87 0.93 0.86 0.87 0.83 0.76 0.75 0.75 0.70 0.65 0.63 0.56 0.49 0.50 0.50 0.47 0.53 0.62 0.69 0.79 0.94 1.00 1.20 1.41 1.51 1.64 1.71 1.57 1.42 1.35 1.19 1.10 1.00 0.87 0.81 0.68 0.54 0.45 0.35 0.34
0.68 0.73 0.73 0.74 0.74 0.75 0.66 0.54 0.50 0.52 0.56 0.58 0.61 0.63 0.50 0.42 0.49 0.50 0.47 0.43 0.44 0.46 0.55 0.74 0.87 0.95 1.19 1.41 1.60 1.75 1.75 1.68 1.56 1.47 1.42 1.35 1.13 0.96 0.81 0.69 0.60 0.46 0.38
0.73 0.73 0.72 0.72 0.76 0.70 0.55 0.43 0.40 0.39 0.45 0.49 0.55 0.61 0.63 0.59 0.58 0.61 0.61 0.55 0.48 0.46 0.48 0.54 0.61 0.76 1.03 1.41 1.63 1.68 1.80 1.83 1.77 1.69 1.63 1.59 1.42 1.23 1.06 0.93 0.83 0.63 0.51
0.88 0.82 0.79 0.79 0.79 0.78 0.63 0.45 0.41 0.43 0.51 0.54 0.58 0.62 0.66 0.64 0.62 0.53 0.54 0.53 0.52 0.52 0.47 0.49 0.52 0.62 0.79 1.06 1.45 1.60 1.64 1.59 1.54 1.37 1.26 1.30 1.32 1.32 1.28 1.17 1.02 0.88 0.72
1.17 1.11 1.00 0.96 0.94 0.94 0.84 0.58 0.50 0.50 0.56 0.63 0.72 0.72 0.65 0.59 0.55 0.49 0.51 0.57 0.53 0.50 0.55 0.56 0.56 0.55 0.58 0.73 1.03 1.27 1.33 1.32 1.22 1.20 1.00 0.96 0.98 1.06 1.16 1.09 0.98 0.93 0.87